Flag for Angola Weather past 2 weeks in Cabinda, Angola

Now
75 °F

Passing clouds.


Feels Like: 73 °F
Forecast: 80 / 86 °F
Wind: 3 mph from Northeast

Location: Pointe Airport-Noire

Current Time: Jan 29, 2015 at 7:35:41 AM

Latest Report: Jan 29, 2015 at 6:00 AM


Visibility: 5 mi

Pressure: 29.86 "Hg

Humidity: 100%

Dew point: 75 °F

Location of CabindaLocation

Historic Weather in Cabinda — Graph

°F

Cabinda temperature yesterday

Maximum temperature yesterday: 84 °F (at 2:00 PM)
Minimum temperature yesterday: 73 °F (at 4:00 AM)
Average temperature yesterday: 78 °F

Past Weeks' High & Low Weather Summary

 TemperatureHumidityPressure
High88 °F (Jan 15, 11:00 AM)100% (Jan 25, 10:00 PM)29.95 "Hg (Jan 25, 10:00 PM)
Low73 °F (Jan 27, 2:00 AM)62% (Jan 15, 12:00 PM)29.74 "Hg (Jan 25, 4:00 PM)
Average81 °F82%29.86 "Hg
* Reported Jan 14 6:00 AM — Jan 29 6:00 AM, Cabinda, Weather by CustomWeather, © 2014

Note: Actual official high and low records may vary slightly from our data, if they occured in-between our weather recording intervals... More about our weather records

Advertising

Cabinda weather history for previous 24 hours

 ConditionsComfort  
Time TempWeatherWind HumidityBarometerVisibility
6:00 AM
Jan 29
75 °FPassing clouds.3 mph100%29.86 "Hg5 mi
5:00 AM75 °FPassing clouds.3 mph100%29.83 "Hg5 mi
4:00 AM77 °FThunderstorms. Passing clouds.3 mph94%29.83 "Hg5 mi
3:00 AM77 °FThunderstorms. Passing clouds.2 mph94%29.83 "Hg5 mi
2:00 AM77 °FPassing clouds.3 mph94%29.86 "Hg5 mi
1:00 AM77 °FPassing clouds.3 mph100%29.89 "Hg5 mi
12:00 AM77 °FPassing clouds.No wind100%29.86 "Hg5 mi
11:00 PM
Jan 28
79 °FPassing clouds.5 mph94%29.86 "Hg5 mi
10:00 PM79 °FThunderstorms. Passing clouds.5 mph94%29.86 "HgN/A
9:00 PM79 °FThunderstorms. Passing clouds.5 mph94%29.86 "HgN/A
8:00 PM81 °FThunderstorms. Passing clouds.2 mph84%29.83 "HgN/A
7:00 PM81 °FThunderstorms. Passing clouds.2 mph84%29.80 "HgN/A
6:00 PM81 °FScattered clouds.3 mph84%29.80 "HgN/A
5:00 PM81 °FOvercast.5 mph84%29.80 "HgN/A
4:00 PM82 °FOvercast.6 mph74%29.77 "HgN/A
3:00 PM84 °FScattered clouds.7 mph74%29.80 "HgN/A
2:00 PM84 °FPassing clouds.6 mph70%29.83 "HgN/A
1:00 PM79 °FScattered clouds.3 mph89%29.86 "HgN/A
12:00 PM81 °FBroken clouds.7 mph79%29.86 "Hg5 mi
11:00 AM77 °FLight rain. Partly sunny.5 mph94%29.92 "Hg5 mi
10:00 AM79 °FScattered clouds.5 mph84%29.89 "HgN/A
9:00 AM79 °FScattered clouds.8 mph84%29.89 "Hg5 mi
8:00 AM77 °FScattered clouds.5 mph89%29.89 "Hg5 mi
7:00 AM73 °FScattered clouds.8 mph94%29.86 "Hg5 mi
Weather by CustomWeather, © 2014

See weather overviewHow to use our weather pages